Back to catalog

STARLINK-30250

AliveCommunicationsVLEO
NORAD 57527·PAYLOAD·🇺🇸 United States

Launched Aug 8, 2023 from Vandenberg Space Force Base

Loading…

Next Passes (next 24 hours)

TLE

FreshSource: CelesTrak SupGP

Epoch: Sep 14, 2026, 22:13 UTC

1 57527C 23115G   26257.92618056  .00032643  00000+0  11702-2 0  2574
2 57527  42.9993  13.1563 0002501 300.0921 263.8989 15.27896322    17

Track STARLINK-30250 in real time with AllMySat

Download on the App Store